Weather History for Zephyrhills, FL

Change the Weather History Date:

Sunday, April 28, 2013

  Actual Average (KPCM) Record (KPCM)
Temperature  
Mean Temperature 73 °F -  
Max Temperature 86 °F 85 °F 97 °F (1968)
Min Temperature 60 °F 60 °F 46 °F (1946)
Cooling Degree Days 8    
Growing Degree Days 23 (Base 50)    
Moisture  
Dew Point 58 °F    
Average Humidity 65    
Maximum Humidity 100    
Minimum Humidity 29    
Precipitation  
Precipitation 0.00 in - - ()
Sea Level Pressure  
Sea Level Pressure 30.08 in    
Wind  
Wind Speed 5 mph (ESE)    
Max Wind Speed 15 mph    
Max Gust Speed 20 mph    
Visibility 9 miles    
Events      
Averages and records for this station are not official NWS values.
T = Trace of Precipitation, MM = Missing Value Source: NWS Daily Summary

Daily Weather History Graph

Daily Weather History Graph

Search for Another Location

Airport:

Trip Planner

Search our weather history database for the weather conditions in past years. The results will help you decide how hot, cold, wet, or windy it might be!

Date:

Astronomy

Apr. 28, 2013 Rise Set
Actual Time 6:50 AM EDT 8:01 PM EDT
Civil Twilight 6:26 AM EDT 8:26 PM EDT
Nautical Twilight 5:56 AM EDT 8:55 PM EDT
Astronomical Twilight 5:26 AM EDT 9:26 PM EDT
Moon 11:22 PM EDT (4/28) 9:15 AM EDT (4/28)
Length of Visible Light 14h 00m
Length of Day
13h 11m
Waning Gibbous, 89% of the Moon is Illuminated
Apr 28
Waning Gibbous
May 2
Last Quarter
May 9
New
May 18
First Quarter
May 25
Full

Hourly Weather History & Observations

Time (EDT) Temp. Heat Index Dew Point Humidity Pressure Visibility Wind Dir Wind Speed Gust Speed Precip Events Conditions
12:15 AM 66.2 °F - 64.4 °F 94% 30.17 in 10.0 mi East 4.6 mph - N/A   Clear
12:35 AM 64.4 °F - 62.6 °F 94% 30.17 in 10.0 mi ENE 4.6 mph - N/A   Clear
12:55 AM 64.4 °F - 64.4 °F 100% 30.16 in 10.0 mi East 3.5 mph - N/A   Clear
1:15 AM 64.4 °F - 64.4 °F 100% 30.15 in 10.0 mi East 4.6 mph - N/A   Clear
1:35 AM 64.4 °F - 64.4 °F 100% 30.15 in 10.0 mi East 3.5 mph - N/A   Clear
1:55 AM 64.4 °F - 64.4 °F 100% 30.15 in 10.0 mi Calm Calm - N/A   Clear
2:15 AM 62.6 °F - 62.6 °F 100% 30.14 in 10.0 mi Calm Calm - N/A   Clear
2:35 AM 62.6 °F - 62.6 °F 100% 30.13 in 10.0 mi Calm Calm - N/A   Clear
2:55 AM 62.6 °F - 62.6 °F 100% 30.13 in 10.0 mi East 4.6 mph - N/A   Clear
3:15 AM 62.6 °F - 62.6 °F 100% 30.12 in 10.0 mi Calm Calm - N/A   Clear
3:35 AM 62.6 °F - 62.6 °F 100% 30.12 in 10.0 mi Calm Calm - N/A   Clear
3:55 AM 60.8 °F - 60.8 °F 100% 30.10 in 7.0 mi Calm Calm - N/A   Clear
4:15 AM 60.8 °F - 60.8 °F 100% 30.10 in 10.0 mi Calm Calm - N/A   Clear
4:35 AM 62.6 °F - 62.6 °F 100% 30.10 in 7.0 mi Calm Calm - N/A   Clear
4:55 AM 60.8 °F - 60.8 °F 100% 30.10 in 7.0 mi ESE 3.5 mph - N/A   Clear
5:15 AM 60.8 °F - 60.8 °F 100% 30.10 in 7.0 mi Calm Calm - N/A   Clear
5:35 AM 60.8 °F - 60.8 °F 100% 30.10 in 7.0 mi Calm Calm - N/A   Clear
5:55 AM 60.8 °F - 60.8 °F 100% 30.10 in 7.0 mi Calm Calm - N/A   Clear
6:15 AM 60.8 °F - 60.8 °F 100% 30.10 in 7.0 mi Calm Calm - N/A   Clear
6:35 AM 60.8 °F - 60.8 °F 100% 30.09 in 5.0 mi Calm Calm - N/A   Clear
7:15 AM 60.8 °F - 60.8 °F 100% 30.11 in 2.5 mi Calm Calm - N/A   Clear
7:35 AM 60.8 °F - 60.8 °F 100% 30.12 in 5.0 mi Calm Calm - N/A   Clear
7:55 AM 62.6 °F - 62.6 °F 100% 30.13 in 7.0 mi Calm Calm - N/A   Clear
8:15 AM 62.6 °F - 62.6 °F 100% 30.13 in 10.0 mi Calm Calm - N/A   Clear
8:35 AM 64.4 °F - 64.4 °F 100% 30.14 in 10.0 mi NE 3.5 mph - N/A   Clear
9:15 AM 71.6 °F - 68.0 °F 88% 30.14 in 10.0 mi ESE 5.8 mph - N/A   Clear
9:35 AM 73.4 °F - 68.0 °F 83% 30.14 in 10.0 mi East 4.6 mph - N/A   Clear
10:15 AM 77.0 °F - 60.8 °F 57% 30.15 in 10.0 mi SSE 12.7 mph - N/A   Scattered Clouds
10:35 AM 77.0 °F - 59.0 °F 54% 30.14 in 10.0 mi ESE 9.2 mph - N/A   Scattered Clouds
10:55 AM 78.8 °F - 57.2 °F 47% 30.15 in 10.0 mi SE 10.4 mph - N/A   Scattered Clouds
11:15 AM 78.8 °F - 55.4 °F 44% 30.14 in 10.0 mi ESE 12.7 mph 17.3 mph N/A   Scattered Clouds
11:35 AM 80.6 °F 80.3 °F 53.6 °F 39% 30.13 in 10.0 mi SE 12.7 mph 19.6 mph N/A   Clear
11:55 AM 80.6 °F 80.3 °F 53.6 °F 39% 30.13 in 10.0 mi SE 12.7 mph 16.1 mph N/A   Clear
12:15 PM 80.6 °F 80.3 °F 53.6 °F 39% 30.13 in 10.0 mi ESE 11.5 mph 17.3 mph N/A   Scattered Clouds
12:35 PM 80.6 °F 80.3 °F 53.6 °F 39% 30.11 in 10.0 mi ESE 13.8 mph 19.6 mph N/A   Clear
12:55 PM 82.4 °F - 51.8 °F 35% 30.10 in 10.0 mi SE 8.1 mph 17.3 mph N/A   Clear
1:15 PM 82.4 °F 81.4 °F 53.6 °F 37% 30.09 in 10.0 mi SE 11.5 mph 18.4 mph N/A   Scattered Clouds
1:35 PM 84.2 °F - 51.8 °F 33% 30.08 in 10.0 mi SE 12.7 mph 18.4 mph N/A   Clear
1:55 PM 84.2 °F - 51.8 °F 33% 30.07 in 10.0 mi East 15.0 mph 18.4 mph N/A   Scattered Clouds
2:15 PM 82.4 °F - 51.8 °F 35% 30.07 in 10.0 mi SE 11.5 mph 17.3 mph N/A   Mostly Cloudy
2:35 PM 82.4 °F - 51.8 °F 35% 30.07 in 10.0 mi SE 10.4 mph 16.1 mph N/A   Mostly Cloudy
2:55 PM 86.0 °F - 51.8 °F 31% 30.05 in 10.0 mi SE 11.5 mph - N/A   Scattered Clouds
3:15 PM 84.2 °F - 51.8 °F 33% 30.05 in 10.0 mi SSE 6.9 mph 16.1 mph N/A   Scattered Clouds
3:35 PM 86.0 °F - 50.0 °F 29% 30.03 in 10.0 mi SSE 6.9 mph 17.3 mph N/A   Scattered Clouds
3:55 PM 86.0 °F - 50.0 °F 29% 30.02 in 10.0 mi ESE 9.2 mph 18.4 mph N/A   Scattered Clouds
4:15 PM 86.0 °F - 50.0 °F 29% 30.02 in 10.0 mi SE 12.7 mph 17.3 mph N/A   Scattered Clouds
4:35 PM 86.0 °F - 51.8 °F 31% 30.01 in 10.0 mi East 9.2 mph 16.1 mph N/A   Scattered Clouds
4:55 PM 86.0 °F - 50.0 °F 29% 30.01 in 10.0 mi SE 8.1 mph - N/A   Mostly Cloudy
5:15 PM 84.2 °F - 50.0 °F 30% 30.01 in 10.0 mi ESE 5.8 mph - N/A   Scattered Clouds
5:35 PM 86.0 °F - 50.0 °F 29% 30.01 in 10.0 mi SE 5.8 mph - N/A   Mostly Cloudy
5:55 PM 82.4 °F - 51.8 °F 35% 30.00 in 10.0 mi ESE 5.8 mph - N/A   Mostly Cloudy
6:15 PM 82.4 °F - 51.8 °F 35% 30.00 in 10.0 mi ESE 5.8 mph - N/A   Mostly Cloudy
6:35 PM 86.0 °F - 51.8 °F 31% 30.00 in 10.0 mi ESE 10.4 mph - N/A   Mostly Cloudy
6:55 PM 80.6 °F 80.3 °F 53.6 °F 39% 29.99 in 10.0 mi East 8.1 mph - N/A   Mostly Cloudy
7:15 PM 80.6 °F 80.3 °F 53.6 °F 39% 29.99 in 10.0 mi East 5.8 mph - N/A   Scattered Clouds
7:35 PM 78.8 °F - 53.6 °F 42% 29.99 in 10.0 mi ESE 8.1 mph - N/A   Clear
7:55 PM 78.8 °F - 53.6 °F 42% 30.00 in 10.0 mi ESE 6.9 mph - N/A   Scattered Clouds
8:15 PM 77.0 °F - 53.6 °F 44% 30.00 in 10.0 mi ESE 6.9 mph - N/A   Scattered Clouds
8:35 PM 77.0 °F - 55.4 °F 47% 30.01 in 10.0 mi East 4.6 mph - N/A   Mostly Cloudy
8:55 PM 75.2 °F - 55.4 °F 50% 30.01 in 10.0 mi East 8.1 mph - N/A   Mostly Cloudy
9:15 PM 75.2 °F - 57.2 °F 53% 30.02 in 10.0 mi ESE 9.2 mph - N/A   Mostly Cloudy
9:35 PM 75.2 °F - 57.2 °F 53% 30.03 in 10.0 mi ESE 10.4 mph - N/A   Mostly Cloudy
9:55 PM 73.4 °F - 57.2 °F 57% 30.03 in 10.0 mi ESE 8.1 mph - N/A   Scattered Clouds
10:15 PM 73.4 °F - 59.0 °F 61% 30.04 in 10.0 mi ESE 6.9 mph - N/A   Scattered Clouds
10:35 PM 71.6 °F - 59.0 °F 64% 30.05 in 10.0 mi ESE 3.5 mph - N/A   Clear
10:55 PM 69.8 °F - 59.0 °F 68% 30.05 in 10.0 mi Calm Calm - N/A   Clear
11:15 PM 69.8 °F - 59.0 °F 68% 30.05 in 10.0 mi Calm Calm - N/A   Clear
11:35 PM 69.8 °F - 60.8 °F 73% 30.05 in 10.0 mi SE 4.6 mph - N/A   Clear
11:55 PM 68.0 °F - 60.8 °F 78% 30.05 in 10.0 mi Calm Calm - N/A   Clear